Location: Cerbedi�res
(48.2182°N, 1.4849°W)
Time: 02:58:08
(UTC+00:00)

SJ-6B - Pass Details

Date: 03 March 2021
Orbit: 509 x 581 km, 97.6° (Epoch: 12 April)

Event Time Altitude Azimuth Distance (km) Brightness Sun altitude
Exits shadow 19:23:01 23° 132° (SE) 1,240 4.1 -15.7°
Maximum altitude 19:25:12 46° 71° (ENE) 782 3.2 -16.1°
Drops below altitude 10° 19:29:05 10° 358° (N) 1,875 5.7 -16.7°
Sets 19:31:16 0° 353° (N) 2,765 6.6 -17.0°
